Miscellaneous Local Product
Issued by NWS Hastings, NE

Home | Current Version | Previous Version | Graphics & Text | Print | Product List | Glossary On
Versions: 1 2 3 4 5 6 7 8 9 10 11 12 13 14 15 16 17 18 19 20 21 22 23 24 25 26 27 28 29 30 31 32 33 34 35 36 37 38 39 40 41 42 43 44 45 46 47 48 49 50
000
AXUS43 KGID 302302
MISGRI

GID CWA HOURLY WEATHER ROUNDUP
NATIONAL WEATHER SERVICE HASTINGS NE
600 PM CDT TUE SEP 30 2014

NOTE: "FAIR" INDICATES FEW OR NO CLOUDS BELOW 12,000 FEET WITH NO
SIGNIFICANT WEATHER AND/OR OBSTRUCTIONS TO VISIBILITY.

...SOUTH CENTRAL NEBRASKA...

CITY           SKY/WX    TMP DP  RH WIND       PRES   REMARKS
GRAND ISLAND   SUNNY     72  61  68 S13       29.72S
HASTINGS       SUNNY     72  58  61 S12       29.73S
KEARNEY        MOSUNNY   73  55  53 SE16      29.72R
ORD            SUNNY     77  42  28 W7        29.67S
YORK           PTSUNNY   68  63  83 S8        29.74F
AURORA         SUNNY     71  61  72 S9        29.73S
LEXINGTON      SUNNY     76  47  35 S6        29.71S
HOLDREGE       SUNNY     75  51  43 S3        29.72S
HEBRON         CLOUDY    67  64  90 CALM      29.73F

...NEBRASKA PANHANDLE...

CITY           SKY/WX    TMP DP  RH WIND       PRES   REMARKS
CHADRON        MOSUNNY   68  46  45 NW12G20   29.65R
ALLIANCE       PTSUNNY   67  42  40 W20       29.71R
SCOTTSBLUFF    PTSUNNY   68  42  38 W22G29    29.72R
SIDNEY         PTSUNNY   67  38  34 W10       29.76S

...WESTERN AND NORTH CENTRAL NEBRASKA...

CITY           SKY/WX    TMP DP  RH WIND       PRES   REMARKS
VALENTINE      SUNNY     72  43  35 W21G30    29.64R
AINSWORTH      SUNNY     73  42  33 W15G24    29.66S
ONEILL         SUNNY     77  45  31 SW10G21   29.67S
BROKEN BOW     SUNNY     76  43  30 SW8       29.69S
IMPERIAL       SUNNY     74  38  27 S14       29.73S
NORTH PLATTE   PTSUNNY   75  44  33 SW9       29.70S
MCCOOK         MOSUNNY   78  38  23 S6        29.72S

...EASTERN NEBRASKA...

CITY           SKY/WX    TMP DP  RH WIND       PRES   REMARKS
NORFOLK        MOSUNNY   69  61  75 S17       29.72F
SO SIOUX CITY  PTSUNNY   68  63  84 S15G22    29.76S
TEKAMAH        LGT RAIN  66  63  90 S13       29.76F
COLUMBUS       PTSUNNY   68  61  77 S10       29.75S
ALBION         SUNNY     72  60  66 SE15      29.71R
OMAHA EPPLEY   TSTM      66  64  93 E9        29.79F FOG
OFFUTT AFB     RAIN      66  66 100 NW7       29.80S FOG
MILLARD        RAIN      66  64  93 E8        29.77F
LINCOLN        TSTM      63  60  90 SE13      29.76F FOG
NEBRASKA CITY  TSTM      65  65 100 E13       29.75F
BEATRICE       CLOUDY    66  64  93 E7        29.75F
FALLS CITY     PTSUNNY   71  65  81 NE6       29.75F

...NORTHERN KANSAS...

CITY           SKY/WX    TMP DP  RH WIND       PRES   REMARKS
GOODLAND       SUNNY     72  39  30 SW3       29.77S
HILL CITY      MOSUNNY   79  55  43 E6        29.71S
NORTON         CLEAR     79  45  29 SE7       29.70F
PHILLIPSBURG   SUNNY     81  57  44 SE7       29.70F
SMITH CENTER   SUNNY     73  61  64 CALM      29.71F HAZE
BELOIT         PTSUNNY   72  66  83 NE6       29.69F
HAYS           MOSUNNY   77  61  57 NE5       29.68F
RUSSELL        PTSUNNY   73  67  81 CALM      29.65F THUNDER
CONCORDIA      PTSUNNY   69  67  93 NE7       29.71F
SALINA         LGT RAIN  80  62  54 S15       29.67F
TOPEKA         PTSUNNY   83  58  42 S16       29.75F



USA.gov is the U.S. government's official web portal to all federal, state and local government web resources and services.